Time,TemperatureF,DewpointF,PressureIn,WindDirection,WindDirectionDegrees,WindSpeedMPH,WindSpeedGustMPH,Humidity,HourlyPrecipIn,Conditions,Clouds,dailyrainin,SoftwareType,DateUTC
2013-02-14 00:02:00,33.0,26.0,-100.00,SSE,150,4.0,6.0,77,0.00,,,-99.99,,2013-02-14 06:02:00,
2013-02-14 00:11:00,33.0,26.0,-100.00,SSE,150,4.0,6.0,77,0.00,,,-99.99,,2013-02-14 06:11:00,
2013-02-14 00:21:00,33.0,26.0,-100.00,SSE,150,4.0,6.0,77,0.00,,,-99.99,,2013-02-14 06:21:00,
2013-02-14 00:31:00,33.0,26.0,-100.00,SSE,150,4.0,6.0,77,0.00,,,-99.99,,2013-02-14 06:31:00,
2013-02-14 00:52:00,32.0,28.0,-100.00,SE,135,2.0,6.0,87,0.57,,,-99.99,,2013-02-14 06:52:00,
2013-02-14 01:01:00,32.0,28.0,-100.00,SE,135,2.0,6.0,87,0.57,,,-99.99,,2013-02-14 07:01:00,
2013-02-14 01:11:00,32.0,28.0,-100.00,SE,135,2.0,6.0,87,0.57,,,-99.99,,2013-02-14 07:11:00,
2013-02-14 01:21:00,32.0,28.0,-100.00,SE,135,2.0,6.0,87,0.57,,,-99.99,,2013-02-14 07:21:00,
2013-02-14 01:31:00,32.0,28.0,-100.00,SE,135,2.0,6.0,87,0.57,,,-99.99,,2013-02-14 07:31:00,
2013-02-14 01:52:00,32.0,30.0,-100.00,SSE,160,4.0,7.0,90,0.75,,,-99.99,,2013-02-14 07:52:00,
2013-02-14 02:01:00,32.0,30.0,-100.00,SSE,160,4.0,7.0,90,0.75,,,-99.99,,2013-02-14 08:01:00,
2013-02-14 02:11:00,32.0,30.0,-100.00,SSE,160,4.0,7.0,90,0.75,,,-99.99,,2013-02-14 08:11:00,
2013-02-14 02:21:00,32.0,30.0,-100.00,SSE,160,4.0,7.0,90,0.75,,,-99.99,,2013-02-14 08:21:00,
2013-02-14 02:30:00,33.0,30.0,-100.00,SSE,155,4.0,7.0,91,0.00,,,-99.99,,2013-02-14 08:30:00,
2013-02-14 02:32:00,32.0,30.0,-100.00,SSE,160,4.0,7.0,90,0.75,,,-99.99,,2013-02-14 08:32:00,
2013-02-14 02:52:00,33.0,30.0,-100.00,SSE,155,4.0,7.0,91,0.00,,,-99.99,,2013-02-14 08:52:00,
2013-02-14 03:02:00,33.0,30.0,-100.00,SSE,155,4.0,7.0,91,0.00,,,-99.99,,2013-02-14 09:02:00,
2013-02-14 03:11:00,33.0,30.0,-100.00,SSE,155,4.0,7.0,91,0.00,,,-99.99,,2013-02-14 09:11:00,
2013-02-14 03:21:00,33.0,30.0,-100.00,SSE,155,4.0,7.0,91,0.00,,,-99.99,,2013-02-14 09:21:00,
2013-02-14 03:52:00,33.0,31.0,-100.00,South,185,4.0,7.0,91,0.00,,,-99.99,,2013-02-14 09:52:00,
2013-02-14 04:02:00,33.0,31.0,-100.00,South,185,4.0,7.0,91,0.00,,,-99.99,,2013-02-14 10:02:00,
2013-02-14 04:11:00,33.0,31.0,-100.00,South,185,4.0,7.0,91,0.00,,,-99.99,,2013-02-14 10:11:00,
2013-02-14 04:21:00,33.0,31.0,-100.00,South,185,4.0,7.0,91,0.00,,,-99.99,,2013-02-14 10:21:00,
2013-02-14 04:31:00,33.0,31.0,-100.00,South,185,4.0,7.0,91,0.00,,,-99.99,,2013-02-14 10:31:00,
2013-02-14 04:52:00,31.0,29.0,-100.00,South,180,1.0,4.0,91,0.00,,,-99.99,,2013-02-14 10:52:00,
2013-02-14 05:02:00,31.0,29.0,-100.00,South,180,1.0,4.0,91,0.00,,,-99.99,,2013-02-14 11:02:00,
2013-02-14 05:11:00,31.0,29.0,-100.00,South,180,1.0,4.0,91,0.00,,,-99.99,,2013-02-14 11:11:00,
2013-02-14 05:21:00,31.0,29.0,-100.00,South,180,1.0,4.0,91,0.00,,,-99.99,,2013-02-14 11:21:00,
2013-02-14 05:42:00,32.0,29.0,-100.00,South,180,0.0,1.0,91,0.00,,,-99.99,,2013-02-14 11:42:00,
2013-02-14 05:52:00,32.0,29.0,-100.00,South,180,0.0,1.0,91,0.00,,,-99.99,,2013-02-14 11:52:00,
2013-02-14 06:02:00,32.0,29.0,-100.00,South,180,0.0,1.0,91,0.00,,,-99.99,,2013-02-14 12:02:00,
2013-02-14 06:12:00,32.0,29.0,-100.00,South,180,0.0,1.0,91,0.00,,,-99.99,,2013-02-14 12:12:00,
2013-02-14 06:22:00,32.0,29.0,-100.00,South,180,0.0,1.0,91,0.00,,,-99.99,,2013-02-14 12:22:00,
2013-02-14 06:42:00,32.0,30.0,-100.00,SW,235,2.0,4.0,91,0.00,,,-99.99,,2013-02-14 12:42:00,
2013-02-14 06:53:00,32.0,30.0,-100.00,SW,235,2.0,4.0,91,0.00,,,-99.99,,2013-02-14 12:53:00,
2013-02-14 07:02:00,32.0,30.0,-100.00,SW,235,2.0,4.0,91,0.00,,,-99.99,,2013-02-14 13:02:00,
2013-02-14 07:11:00,32.0,30.0,-100.00,SW,235,2.0,4.0,91,0.00,,,-99.99,,2013-02-14 13:11:00,
2013-02-14 07:21:00,32.0,30.0,-100.00,SW,235,2.0,4.0,91,0.00,,,-99.99,,2013-02-14 13:21:00,
2013-02-14 07:52:00,33.0,31.0,-100.00,West,270,6.0,11.0,91,0.00,,,-99.99,,2013-02-14 13:52:00,
2013-02-14 08:01:00,33.0,31.0,-100.00,West,270,6.0,11.0,91,0.00,,,-99.99,,2013-02-14 14:01:00,
2013-02-14 08:11:00,33.0,31.0,-100.00,West,270,6.0,11.0,91,0.00,,,-99.99,,2013-02-14 14:11:00,
2013-02-14 08:21:00,33.0,31.0,-100.00,West,270,6.0,11.0,91,0.00,,,-99.99,,2013-02-14 14:21:00,
2013-02-14 08:52:00,34.0,32.0,-100.00,WNW,290,10.0,16.0,91,0.00,,,-99.99,,2013-02-14 14:52:00,
2013-02-14 09:02:00,34.0,32.0,-100.00,WNW,290,10.0,16.0,91,0.00,,,-99.99,,2013-02-14 15:02:00,
2013-02-14 09:11:00,34.0,32.0,-100.00,WNW,290,10.0,16.0,91,0.00,,,-99.99,,2013-02-14 15:11:00,
2013-02-14 09:21:00,34.0,32.0,-100.00,WNW,290,10.0,16.0,91,0.00,,,-99.99,,2013-02-14 15:21:00,
2013-02-14 09:32:00,32.0,30.0,-100.00,WNW,300,11.0,21.0,91,0.16,,,-99.99,,2013-02-14 15:32:00,
2013-02-14 09:52:00,32.0,30.0,-100.00,WNW,300,11.0,21.0,91,0.16,,,-99.99,,2013-02-14 15:52:00,
2013-02-14 10:02:00,32.0,30.0,-100.00,WNW,300,11.0,21.0,91,0.16,,,-99.99,,2013-02-14 16:02:00,
2013-02-14 10:11:00,32.0,30.0,-100.00,WNW,300,11.0,21.0,91,0.16,,,-99.99,,2013-02-14 16:11:00,
2013-02-14 10:21:00,32.0,30.0,-100.00,WNW,300,11.0,21.0,91,0.16,,,-99.99,,2013-02-14 16:21:00,
2013-02-14 10:52:00,31.0,27.0,-100.00,NW,325,17.0,26.0,85,0.00,,,-99.99,,2013-02-14 16:52:00,
2013-02-14 11:01:00,31.0,27.0,-100.00,NW,325,17.0,26.0,85,0.00,,,-99.99,,2013-02-14 17:01:00,
2013-02-14 11:11:00,31.0,27.0,-100.00,NW,325,17.0,26.0,85,0.00,,,-99.99,,2013-02-14 17:11:00,
2013-02-14 11:21:00,31.0,27.0,-100.00,NW,325,17.0,26.0,85,0.00,,,-99.99,,2013-02-14 17:21:00,
2013-02-14 11:52:00,33.0,27.0,-100.00,WNW,290,11.0,21.0,78,0.00,,,-99.99,,2013-02-14 17:52:00,
2013-02-14 12:01:00,33.0,27.0,-100.00,WNW,290,11.0,21.0,78,0.00,,,-99.99,,2013-02-14 18:01:00,
2013-02-14 12:11:00,33.0,27.0,-100.00,WNW,290,11.0,21.0,78,0.00,,,-99.99,,2013-02-14 18:11:00,
2013-02-14 12:23:00,33.0,27.0,-100.00,WNW,290,11.0,21.0,78,0.00,,,-99.99,,2013-02-14 18:23:00,
2013-02-14 12:52:00,32.0,24.0,-100.00,NW,305,12.0,20.0,72,0.00,,,-99.99,,2013-02-14 18:52:00,
2013-02-14 13:02:00,32.0,24.0,-100.00,NW,305,12.0,20.0,72,0.00,,,-99.99,,2013-02-14 19:02:00,
2013-02-14 13:11:00,32.0,24.0,-100.00,NW,305,12.0,20.0,72,0.00,,,-99.99,,2013-02-14 19:11:00,
2013-02-14 13:21:00,32.0,24.0,-100.00,NW,305,12.0,20.0,72,0.00,,,-99.99,,2013-02-14 19:21:00,
2013-02-14 13:52:00,32.0,22.0,-100.00,NW,315,9.0,22.0,68,0.01,,,-99.99,,2013-02-14 19:52:00,
2013-02-14 14:01:00,32.0,22.0,-100.00,NW,315,9.0,22.0,68,0.01,,,-99.99,,2013-02-14 20:01:00,
2013-02-14 14:11:00,32.0,22.0,-100.00,NW,315,9.0,22.0,68,0.01,,,-99.99,,2013-02-14 20:11:00,
2013-02-14 14:21:00,32.0,22.0,-100.00,NW,315,9.0,22.0,68,0.01,,,-99.99,,2013-02-14 20:21:00,
2013-02-14 14:52:00,33.0,21.0,-100.00,NW,305,10.0,24.0,61,0.00,,,-99.99,,2013-02-14 20:52:00,
2013-02-14 15:02:00,33.0,21.0,-100.00,NW,305,10.0,24.0,61,0.00,,,-99.99,,2013-02-14 21:02:00,
2013-02-14 15:11:00,33.0,21.0,-100.00,NW,305,10.0,24.0,61,0.00,,,-99.99,,2013-02-14 21:11:00,
2013-02-14 15:21:00,33.0,21.0,-100.00,NW,305,10.0,24.0,61,0.00,,,-99.99,,2013-02-14 21:21:00,
2013-02-14 15:52:00,33.0,22.0,-100.00,WNW,300,11.0,21.0,64,0.00,,,-99.99,,2013-02-14 21:52:00,
2013-02-14 16:02:00,33.0,22.0,-100.00,WNW,300,11.0,21.0,64,0.00,,,-99.99,,2013-02-14 22:02:00,
2013-02-14 16:11:00,33.0,22.0,-100.00,WNW,300,11.0,21.0,64,0.00,,,-99.99,,2013-02-14 22:11:00,
2013-02-14 16:21:00,33.0,22.0,-100.00,WNW,300,11.0,21.0,64,0.00,,,-99.99,,2013-02-14 22:21:00,
2013-02-14 16:52:00,32.0,20.0,-100.00,WNW,300,12.0,18.0,59,0.00,,,-99.99,,2013-02-14 22:52:00,
2013-02-14 17:01:00,32.0,20.0,-100.00,WNW,300,12.0,18.0,59,0.00,,,-99.99,,2013-02-14 23:01:00,
2013-02-14 17:11:00,32.0,20.0,-100.00,WNW,300,12.0,18.0,59,0.00,,,-99.99,,2013-02-14 23:11:00,
2013-02-14 17:21:00,32.0,20.0,-100.00,WNW,300,12.0,18.0,59,0.00,,,-99.99,,2013-02-14 23:21:00,
2013-02-14 17:52:00,32.0,20.0,-100.00,West,275,7.0,11.0,61,0.00,,,-99.99,,2013-02-14 23:52:00,
2013-02-14 18:01:00,32.0,20.0,-100.00,West,275,7.0,11.0,61,0.00,,,-99.99,,2013-02-15 00:01:00,
2013-02-14 18:11:00,32.0,20.0,-100.00,West,275,7.0,11.0,61,0.00,,,-99.99,,2013-02-15 00:11:00,
2013-02-14 18:22:00,32.0,20.0,-100.00,West,275,7.0,11.0,61,0.00,,,-99.99,,2013-02-15 00:22:00,
2013-02-14 18:52:00,31.0,17.0,-100.00,West,275,6.0,11.0,58,0.00,,,-99.99,,2013-02-15 00:52:00,
2013-02-14 19:02:00,31.0,17.0,-100.00,West,275,6.0,11.0,58,0.00,,,-99.99,,2013-02-15 01:02:00,
2013-02-14 19:11:00,31.0,17.0,-100.00,West,275,6.0,11.0,58,0.00,,,-99.99,,2013-02-15 01:11:00,
2013-02-14 19:21:00,31.0,17.0,-100.00,West,275,6.0,11.0,58,0.00,,,-99.99,,2013-02-15 01:21:00,
2013-02-14 19:52:00,29.0,17.0,-100.00,West,280,5.0,7.0,61,0.00,,,-99.99,,2013-02-15 01:52:00,
2013-02-14 20:01:00,29.0,17.0,-100.00,West,280,5.0,7.0,61,0.00,,,-99.99,,2013-02-15 02:01:00,
2013-02-14 20:11:00,29.0,17.0,-100.00,West,280,5.0,7.0,61,0.00,,,-99.99,,2013-02-15 02:11:00,
2013-02-14 20:21:00,29.0,17.0,-100.00,West,280,5.0,7.0,61,0.00,,,-99.99,,2013-02-15 02:21:00,
2013-02-14 20:52:00,30.0,20.0,-100.00,WNW,290,6.0,12.0,66,0.00,,,-99.99,,2013-02-15 02:52:00,
2013-02-14 21:02:00,30.0,20.0,-100.00,WNW,290,6.0,12.0,66,0.00,,,-99.99,,2013-02-15 03:02:00,
2013-02-14 21:11:00,30.0,20.0,-100.00,WNW,290,6.0,12.0,66,0.00,,,-99.99,,2013-02-15 03:11:00,
2013-02-14 21:22:00,30.0,20.0,-100.00,WNW,290,6.0,12.0,66,0.00,,,-99.99,,2013-02-15 03:22:00,
2013-02-14 21:52:00,29.0,20.0,-100.00,NW,305,7.0,15.0,71,0.10,,,-99.99,,2013-02-15 03:52:00,
2013-02-14 22:01:00,29.0,20.0,-100.00,NW,305,7.0,15.0,71,0.10,,,-99.99,,2013-02-15 04:01:00,
2013-02-14 22:11:00,29.0,20.0,-100.00,NW,305,7.0,15.0,71,0.10,,,-99.99,,2013-02-15 04:11:00,
2013-02-14 22:21:00,29.0,20.0,-100.00,NW,305,7.0,15.0,71,0.10,,,-99.99,,2013-02-15 04:21:00,
2013-02-14 22:52:00,26.0,16.0,-100.00,NW,320,12.0,20.0,65,0.00,,,-99.99,,2013-02-15 04:52:00,
2013-02-14 23:02:00,26.0,16.0,-100.00,NW,320,12.0,20.0,65,0.00,,,-99.99,,2013-02-15 05:02:00,
2013-02-14 23:12:00,26.0,16.0,-100.00,NW,320,12.0,20.0,65,0.00,,,-99.99,,2013-02-15 05:12:00,
2013-02-14 23:22:00,26.0,16.0,-100.00,NW,320,12.0,20.0,65,0.00,,,-99.99,,2013-02-15 05:22:00,
2013-02-14 23:52:00,23.0,11.0,-100.00,NNW,335,16.0,21.0,60,0.00,,,-99.99,,2013-02-15 05:52:00,